Regional Weather Roundup
Issued by NWS

Home | Current Version | Previous Version | Graphics & Text | Print | Product List | Glossary On
Versions: 1 2 3 4 5 6 7 8 9 10 11 12 13 14 15 16 17 18 19 20 21 22 23 24 25 26 27 28 29 30 31 32 33 34 35 36 37 38 39 40 41 42 43 44 45 46 47 48 49 50
000
ASUS43 KMPX 270601
RWRMN
WEATHER ROUNDUP FOR MINNESOTA
NATIONAL WEATHER SERVICE TWIN CITIES/CHANHASSEN MN
100 AM CDT THU JUL 27 2017


NOTE: "FAIR" INDICATES FEW OR NO CLOUDS BELOW 12,000 FEET WITH NO
SIGNIFICANT WEATHER AND/OR OBSTRUCTIONS TO VISIBILITY. N/A MEANS
CURRENT SKY AND/OR WEATHER CONDITIONS ARE NOT AVAILABLE.

MNZ060>063-068>070-270700-
   Twin Cities Metro

CITY           SKY/WX    TMP DP  RH WIND       PRES   REMARKS
TWIN CITIES    CLEAR     69  63  81 NW3       30.04R
6HR MIN TEMP:  69; 6HR MAX TEMP:  82;

ST PAUL        CLEAR     68  66  93 CALM      30.03R
CRYSTAL        CLEAR     66  60  81 CALM      30.03R
BLAINE         CLEAR     68  63  83 N3        30.04R
LAKEVILLE      CLEAR     63  63 100 CALM      30.04R
EDEN PRAIRIE   CLEAR     70  64  81 NW6       30.03R
6HR MIN TEMP:  70; 6HR MAX TEMP:  82;

SOUTH ST PAUL  CLEAR     69  63  79 CALM      30.03R
LAKE ELMO      FAIR      63  63 100 CALM      30.04S
$$
MNZ001>005-007-008-013>017-022>024-027-028-270700-
   Northwest Minnesota

CITY           SKY/WX    TMP DP  RH WIND       PRES   REMARKS
BEMIDJI        CLEAR     61  57  88 W3        30.10R
HALLOCK        CLEAR     61  59  94 CALM      30.09S
ROSEAU           N/A     64  59  82 W5        30.09R
WARROAD        CLEAR     64  61  88 W6        30.08S
CROOKSTON      CLEAR     61  57  88 CALM      30.10S
FOSSTON        CLEAR     57  55  94 CALM      30.11S
DETROIT LAKES  CLEAR     64  61  88 N3        30.12S
MOORHEAD       CLEAR     63  59  88 CALM      30.10S
PARK RAPIDS    CLEAR     60  57  89 W6        30.10R
MAHNOMEN       FAIR      61  58  88 CALM      30.11R
$$
MNZ006-009>011-018-025>026-270700-
   North Central Minnesota

CITY           SKY/WX    TMP DP  RH WIND       PRES   REMARKS
BAUDETTE       CLEAR     62  59  90 W5        30.07R
FLAG ISLAND    CLEAR     70  61  73 NW8       30.06R
INTL FALLS     CLEAR     54  52  93 CALM      30.06R
6HR MIN TEMP:  54; 6HR MAX TEMP:  78;

WASKISH        CLEAR     66  61  82 NW3       30.08S
BIG FORK       CLEAR     55  54  94 CALM      30.08R
LONGVILLE      CLEAR     57  57 100 CALM      30.09R
GRAND RAPIDS   CLEAR     59  58  96 CALM      30.10R
CRANE LAKE     CLEAR     54  54 100 CALM      30.07R
ORR            CLEAR     59  57  94 CALM      30.05R
COOK             N/A     57  57 100 CALM      30.07S
WALKER         FAIR      61  58  91 CALM      30.09R
$$
MNZ012-019>021-037-270700-
   Northeast Minnesota

CITY           SKY/WX    TMP DP  RH WIND       PRES   REMARKS
DULUTH         CLEAR     63  59  87 N5        30.06R
6HR MIN TEMP:  63; 6HR MAX TEMP:  79;

ELY            CLEAR     57  55  94 CALM      30.06R
HIBBING        CLEAR     54  54 100 NW3       30.07R
EVELETH        CLEAR     59  56  90 CALM      30.08R
DULUTH HARBOR  CLEAR     70  63  78 N3        30.03R
TWO HARBORS    CLEAR     66  61  82 CALM      30.02R
SILVER BAY     CLEAR     63  59  88 CALM      30.02R
GRAND MARAIS     N/A     67  58  72 W3        30.00R
G MARAIS ARPRT CLEAR     61  54  77 NW6       30.06S
$$
MNZ029>031-032-039>041-046>048-054>057-064-270700-
   West Central Minnesota

CITY           SKY/WX    TMP DP  RH WIND       PRES   REMARKS
FERGUS FALLS   CLEAR     64  61  88 NE3       30.09S
WHEATON        CLEAR     64  61  88 NW3       30.11S
MORRIS         CLEAR     66  61  82 N8        30.08S
ALEXANDRIA     CLEAR     67  62  84 N6        30.11R
ELBOW LAKE     FOG       64  62  91 CALM      30.10S VSB 1/2
WADENA         CLEAR     61  61 100 NW6       30.10R
GLENWOOD       CLEAR     64  61  88 N6        30.10R
APPLETON       CLEAR     63  61  94 CALM      30.08R
BENSON         CLEAR     64  61  88 N5        30.10R
ORTONVILLE     CLEAR     66  61  82 MISG      30.09R
MADISON        CLEAR     64  64 100 NW3       30.09R
WILLMAR        FAIR      66  63  88 N6        30.09R
$$
MNZ033>034-036-042>043-049>051-058-059-270700-
   Central Minnesota

CITY           SKY/WX    TMP DP  RH WIND       PRES   REMARKS
ST CLOUD       CLEAR     65  63  93 N5        30.05S
6HR MIN TEMP:  64; 6HR MAX TEMP:  80;

SAUK CENTRE    FAIR      66  62  86 NW7       30.09R
PAYNESVILLE    CLEAR     67  62  84 CALM      30.09R
AITKIN         CLEAR     57  55  94 CALM      30.07R FOG
PINE RIVER     CLEAR     59  57  94 CALM      30.12R
BRAINERD       CLEAR     61  60  97 CALM      30.08R
STAPLES        CLEAR     61  59  94 CALM      30.09S
LONG PRAIRIE   FAIR      64  61  88 CALM      30.10R
LITTLE FALLS   CLEAR     61  59  94 CALM      30.08R
LITCHFIELD     CLEAR     68  64  88 N5        30.07R
BUFFALO        CLEAR     66  61  83 CALM      30.06R
MAPLE LAKE     CLEAR     66  63  89 CALM      30.07R
HUTCHINSON     CLEAR     66  64  91 NW5       30.07R
$$
MNZ037-044-045-052-053-270700-
   East Central Minnesota

CITY           SKY/WX    TMP DP  RH WIND       PRES   REMARKS
PRINCETON      CLEAR     63  61  94 CALM      30.06R
MORA           CLEAR     61  59  94 N3        30.07R
CAMBRIDGE      CLEAR     64  57  77 CALM      30.04R
RUSH CITY      PTCLDY    61  59  93 CALM      30.05R
MOOSE LAKE     CLEAR     63  59  88 CALM      30.04S
HINCKLEY       FAIR      66  61  82 N6        30.05R
CLOQUET        CLEAR     63  55  77 NW5       30.06S
MCGREGOR       CLEAR     61  57  88 CALM      30.07S
$$
MNZ071>073-080-081-089-090-097-098-270700-
   Southwest Minnesota

CITY           SKY/WX    TMP DP  RH WIND       PRES   REMARKS
MONTEVIDEO     CLEAR     64  55  72 N5        30.08S
CANBY          CLEAR     63  61  94 CALM      30.11R
MARSHALL       CLEAR     63  61  93 W6        30.09R
REDWOOD FALLS  CLEAR     68  61  78 NW6       30.06R
OLIVIA         CLEAR     63  59  88 N6        30.06S
PIPESTONE      CLEAR     66  61  82 N5        30.11S
WINDOM         CLEAR     63  61  94 NW6       30.08S
JACKSON        CLEAR     63  59  88 CALM      30.08S
TRACY          CLEAR     66  63  89 NW6       30.10R
SLAYTON        HVY RAIN  60  56  86 NW6       30.11R
$$
MNZ065>067-074>077-082>085-091>093-270700-
   South Central Minnesota

CITY           SKY/WX    TMP DP  RH WIND       PRES   REMARKS
MANKATO        CLEAR     66  63  90 NW3       30.05R
NEW ULM        CLEAR     66  61  82 N6        30.06R
ST JAMES       CLEAR     63  63 100 CALM      30.06S
FAIRMONT       PTCLDY    64  62  93 N6        30.06R
GLENCOE        CLEAR     68  65  91 NW3       30.05R
FARIBAULT      CLEAR     63  63 100 CALM      30.05R
OWATONNA       CLEAR     63  63 100 CALM      30.05R
WASECA         CLEAR     63  59  88 N3        30.06S
ALBERT LEA     CLEAR     66  64  94 N3        30.04S
$$
MNZ078>079-086>088-094>096-270700-
   Southeast Minnesota

CITY           SKY/WX    TMP DP  RH WIND       PRES   REMARKS
ROCHESTER      CLEAR     64  64 100 N6        30.04S
6HR MIN TEMP:  64; 6HR MAX TEMP:  78;

RED WING       CLEAR     64  61  88 CALM      30.02R
STANTON        CLEAR     63  61  94 CALM      30.03R FOG
DODGE CENTER   CLEAR     64  61  88 N3        30.05S
WINONA         CLEAR     70  68  94 NW3       30.01S
AUSTIN         CLEAR     64  63  94 CALM      30.03S
PRESTON        CLEAR     66  64  93 N5        30.03F
$$
ABBREVIATIONS USED IN REMARKS
   TC - TEMPERATURES IN CELSIUS
  WCI - WIND CHILL INDEX
   HX - HEAT INDEX
  VSB - VISIBILITY
$$




USA.gov is the U.S. government's official web portal to all federal, state and local government web resources and services.